Station Historical Data
Daily Summary for August 3, 2017 Units:  English    Metric   Both
« Previous Day
Next Day »
Daily Weekly Monthly Yearly Custom
  High: Low: Average:
Temperature: 86.5 °F 66.8 °F 75.1 °F
Dew Point: 69.5 °F 53.1 °F 65.2 °F
Humidity: 91% 33% 74%
Wind Speed: 1.0mph 0.0mph 0mph
Wind Gust: 2.0mph - -
Wind- - NW
Pressure: 30.14 in 30.06 in -
Precipitation: 0.00 in    
Historical Graphs
 
 
Tabular Data for August 3, 2017
Time Temperature Dew Point Pressure Wind Wind Speed Wind Gust Humidity Rainfall Rate (Hourly) Conditions
00:00 70.7 °F 64.9 °F 30.11 in Calm     82% 0.00 in OVC
00:05 70.6 °F 64.1 °F 30.11 in Calm     80% 0.00 in OVC
00:10 70.7 °F 64.2 °F 30.11 in Calm     80% 0.00 in OVC
00:15 70.7 °F 64.6 °F 30.11 in Calm     81% 0.00 in OVC
00:20 70.7 °F 64.6 °F 30.11 in Calm     81% 0.00 in SCT
00:25 70.7 °F 64.6 °F 30.11 in Calm     81% 0.00 in SCT
00:30 70.7 °F 64.9 °F 30.11 in Calm     82% 0.00 in SCT
00:40 70.5 °F 65.1 °F 30.11 in Calm     83% 0.00 in SCT
00:45 70.5 °F 65.1 °F 30.11 in Calm     83% 0.00 in SCT
00:50 70.5 °F 65.1 °F 30.11 in Calm     83% 0.00 in SCT
00:55 70.4 °F 65.3 °F 30.11 in Calm     84% 0.00 in SCT
01:00 70.4 °F 65.0 °F 30.11 in Calm     83% 0.00 in SCT
01:05 70.3 °F 65.2 °F 30.10 in Calm     84% 0.00 in SCT
01:15 70.3 °F 64.5 °F 30.10 in Calm     82% 0.00 in SCT
01:20 70.3 °F 64.9 °F 30.10 in Calm     83% 0.00 in OVC
01:25 70.3 °F 64.9 °F 30.10 in Calm     83% 0.00 in OVC
01:35 70.3 °F 64.9 °F 30.10 in Calm     83% 0.00 in OVC
01:40 70.3 °F 64.9 °F 30.10 in Calm     83% 0.00 in OVC
01:45 70.3 °F 65.2 °F 30.10 in Calm     84% 0.00 in OVC
01:50 70.2 °F 64.8 °F 30.10 in Calm     83% 0.00 in OVC
01:55 70.1 °F 64.7 °F 30.10 in Calm     83% 0.00 in OVC
02:00 70.1 °F 65.0 °F 30.10 in Calm     84% 0.00 in OVC
02:10 69.9 °F 64.5 °F 30.09 in Calm     83% 0.00 in OVC
02:15 69.8 °F 64.8 °F 30.09 in Calm     84% 0.00 in OVC
02:20 69.9 °F 64.5 °F 30.09 in Calm     83% 0.00 in BKN
02:25 69.9 °F 64.8 °F 30.09 in Calm     84% 0.00 in BKN
02:30 69.8 °F 64.7 °F 30.09 in Calm     84% 0.00 in BKN
02:35 69.7 °F 64.6 °F 30.09 in Calm     84% 0.00 in BKN
02:40 69.6 °F 64.5 °F 30.09 in Calm     84% 0.00 in BKN
02:45 69.5 °F 64.8 °F 30.09 in Calm     85% 0.00 in BKN
02:50 69.4 °F 64.7 °F 30.09 in Calm     85% 0.00 in BKN
02:55 69.3 °F 64.6 °F 30.08 in Calm     85% 0.00 in BKN
03:00 69.2 °F 64.5 °F 30.08 in Calm     85% 0.00 in BKN
03:05 69.1 °F 64.7 °F 30.08 in Calm     86% 0.00 in BKN
03:10 69.0 °F 64.3 °F 30.08 in Calm     85% 0.00 in BKN
03:15 68.9 °F 64.2 °F 30.08 in Calm     85% 0.00 in BKN
03:20 68.8 °F 64.4 °F 30.08 in Calm     86% 0.00 in SCT
03:25 68.7 °F 64.4 °F 30.08 in Calm     86% 0.00 in SCT
03:30 68.7 °F 64.3 °F 30.08 in Calm     86% 0.00 in SCT
03:35 68.6 °F 64.2 °F 30.08 in Calm     86% 0.00 in SCT
03:40 68.5 °F 64.5 °F 30.08 in Calm     87% 0.00 in SCT
03:45 68.4 °F 64.4 °F 30.08 in Calm     87% 0.00 in SCT
03:50 68.3 °F 64.3 °F 30.08 in Calm     87% 0.00 in SCT
03:55 68.2 °F 64.2 °F 30.08 in Calm     87% 0.00 in SCT
04:00 68.1 °F 64.1 °F 30.08 in Calm     87% 0.00 in SCT
04:05 68.0 °F 64.0 °F 30.08 in Calm     87% 0.00 in SCT
04:10 67.8 °F 64.1 °F 30.08 in Calm     88% 0.00 in SCT
04:15 67.7 °F 64.0 °F 30.08 in Calm     88% 0.00 in SCT
04:20 67.6 °F 63.9 °F 30.08 in Calm     88% 0.00 in CLR
04:25 67.6 °F 63.9 °F 30.08 in Calm     88% 0.00 in CLR
04:30 67.5 °F 63.8 °F 30.08 in Calm     88% 0.00 in CLR
04:35 67.4 °F 63.8 °F 30.08 in Calm     88% 0.00 in CLR
04:40 67.4 °F 63.7 °F 30.08 in Calm     88% 0.00 in CLR
04:45 67.4 °F 63.7 °F 30.08 in Calm     88% 0.00 in CLR
04:50 67.3 °F 63.6 °F 30.08 in Calm     88% 0.00 in CLR
04:55 67.3 °F 63.9 °F 30.09 in Calm     89% 0.00 in CLR
05:00 67.3 °F 63.9 °F 30.09 in Calm     89% 0.00 in CLR
05:05 67.3 °F 63.9 °F 30.09 in Calm     89% 0.00 in CLR
05:10 67.4 °F 64.0 °F 30.09 in Calm     89% 0.00 in CLR
05:15 67.4 °F 64.0 °F 30.09 in Calm     89% 0.00 in CLR
05:20 67.4 °F 64.0 °F 30.09 in Calm     89% 0.00 in SCT
05:25 67.3 °F 64.0 °F 30.09 in Calm     89% 0.00 in SCT
05:30 67.3 °F 64.0 °F 30.09 in Calm     89% 0.00 in SCT
05:35 67.3 °F 63.9 °F 30.09 in Calm     89% 0.00 in SCT
05:40 67.3 °F 63.9 °F 30.09 in Calm     89% 0.00 in SCT
05:45 67.3 °F 63.9 °F 30.09 in Calm     89% 0.00 in SCT
05:50 67.3 °F 63.9 °F 30.09 in Calm     89% 0.00 in SCT
05:55 67.3 °F 63.9 °F 30.09 in Calm     89% 0.00 in SCT
06:00 67.3 °F 63.9 °F 30.09 in Calm     89% 0.00 in SCT
06:05 67.2 °F 63.9 °F 30.09 in Calm     89% 0.00 in SCT
06:10 67.2 °F 63.8 °F 30.09 in Calm     89% 0.00 in SCT
06:15 67.1 °F 63.7 °F 30.10 in Calm     89% 0.00 in SCT
06:20 67.0 °F 63.6 °F 30.10 in Calm     89% 0.00 in CLR
06:25 66.9 °F 63.6 °F 30.09 in Calm     89% 0.00 in CLR
06:30 66.9 °F 63.9 °F 30.09 in Calm     90% 0.00 in CLR
06:35 66.9 °F 63.9 °F 30.09 in Calm     90% 0.00 in CLR
06:40 66.9 °F 63.9 °F 30.10 in Calm     90% 0.00 in CLR
06:50 66.8 °F 63.8 °F 30.10 in Calm     90% 0.00 in CLR
06:55 66.8 °F 63.8 °F 30.11 in Calm     90% 0.00 in CLR
07:00 66.8 °F 63.8 °F 30.11 in Calm     90% 0.00 in CLR
07:05 66.8 °F 63.8 °F 30.11 in Calm     90% 0.00 in CLR
07:10 66.8 °F 63.8 °F 30.11 in Calm     90% 0.00 in CLR
07:15 66.8 °F 63.8 °F 30.11 in Calm     90% 0.00 in CLR
07:20 66.8 °F 63.8 °F 30.11 in Calm     90% 0.00 in BKN
07:25 66.9 °F 64.2 °F 30.11 in Calm     91% 0.00 in BKN
07:30 67.0 °F 64.3 °F 30.11 in Calm     91% 0.00 in BKN
07:35 67.1 °F 64.4 °F 30.11 in Calm     91% 0.00 in BKN
07:40 67.2 °F 64.5 °F 30.12 in Calm     91% 0.00 in BKN
07:45 67.3 °F 64.6 °F 30.12 in Calm     91% 0.00 in BKN
07:50 67.5 °F 64.8 °F 30.12 in Calm     91% 0.00 in BKN
07:55 67.7 °F 65.0 °F 30.12 in Calm     91% 0.00 in BKN
08:00 67.8 °F 65.1 °F 30.12 in Calm     91% 0.00 in BKN
08:05 67.9 °F 65.2 °F 30.12 in Calm     91% 0.00 in BKN
08:10 68.0 °F 65.3 °F 30.13 in Calm     91% 0.00 in BKN
08:15 68.1 °F 65.4 °F 30.13 in Calm     91% 0.00 in BKN
08:20 68.3 °F 65.3 °F 30.13 in Calm     90% 0.00 in BKN
08:25 68.4 °F 65.4 °F 30.13 in Calm     90% 0.00 in BKN
08:30 68.6 °F 65.5 °F 30.13 in Calm     90% 0.00 in BKN
08:35 68.7 °F 65.6 °F 30.13 in Calm     90% 0.00 in BKN
08:40 69.0 °F 65.9 °F 30.13 in Calm     90% 0.00 in BKN
08:45 69.2 °F 66.1 °F 30.14 in Calm     90% 0.00 in BKN
08:50 69.4 °F 66.0 °F 30.14 in Calm     89% 0.00 in BKN
08:55 69.6 °F 66.2 °F 30.14 in Calm     89% 0.00 in BKN
09:00 69.7 °F 66.3 °F 30.14 in Calm     89% 0.00 in BKN
09:05 69.9 °F 66.5 °F 30.14 in Calm     89% 0.00 in BKN
09:10 70.2 °F 66.5 °F 30.14 in Calm     88% 0.00 in BKN
09:15 70.4 °F 66.7 °F 30.14 in Calm     88% 0.00 in BKN
09:20 70.7 °F 67.0 °F 30.14 in Calm     88% 0.00 in BKN
09:25 71.1 °F 67.1 °F 30.14 in Calm     87% 0.00 in BKN
09:30 71.6 °F 67.5 °F 30.14 in Calm     87% 0.00 in BKN
09:35 72.0 °F 67.9 °F 30.13 in Calm     87% 0.00 in BKN
09:40 72.4 °F 68.0 °F 30.13 in Calm     86% 0.00 in BKN
09:45 72.9 °F 68.4 °F 30.13 in Calm     86% 0.00 in BKN
09:50 73.2 °F 68.4 °F 30.13 in Calm     85% 0.00 in BKN
09:55 73.5 °F 68.4 °F 30.13 in Calm     84% 0.00 in BKN
10:00 73.8 °F 68.7 °F 30.13 in Calm     84% 0.00 in BKN
10:05 74.1 °F 68.6 °F 30.13 in Calm     83% 0.00 in BKN
10:10 74.2 °F 68.7 °F 30.13 in Calm     83% 0.00 in BKN
10:15 74.5 °F 68.6 °F 30.13 in Calm     82% 0.00 in BKN
10:20 74.8 °F 68.9 °F 30.13 in Calm     82% 0.00 in BKN
10:25 75.3 °F 68.0 °F 30.13 in Calm     78% 0.00 in BKN
10:30 75.7 °F 67.6 °F 30.13 in Calm     76% 0.00 in BKN
10:35 76.0 °F 67.5 °F 30.13 in Calm     75% 0.00 in BKN
10:40 76.2 °F 67.3 °F 30.13 in Calm     74% 0.00 in BKN
10:45 76.8 °F 67.4 °F 30.13 in Calm     73% 0.00 in BKN
10:50 77.6 °F 68.2 °F 30.13 in Calm     73% 0.00 in BKN
10:55 78.1 °F 66.2 °F 30.13 in Calm   2.0 mph 67% 0.00 in BKN
11:00 78.3 °F 67.3 °F 30.13 in Calm     69% 0.00 in BKN
11:05 78.8 °F 66.5 °F 30.12 in Calm   2.0 mph 66% 0.00 in BKN
11:10 79.3 °F 67.3 °F 30.12 in Calm   2.0 mph 67% 0.00 in BKN
11:15 79.6 °F 65.4 °F 30.12 in NW 1.0 mph 2.0 mph 62% 0.00 in BKN
11:20 79.6 °F 65.9 °F 30.12 in Calm   1.0 mph 63% 0.00 in BKN
11:25 79.9 °F 67.1 °F 30.12 in Calm   2.0 mph 65% 0.00 in BKN
11:30 80.2 °F 65.5 °F 30.12 in Calm   1.0 mph 61% 0.00 in BKN
11:35 80.2 °F 65.5 °F 30.12 in Calm   1.0 mph 61% 0.00 in BKN
11:45 80.6 °F 64.5 °F 30.12 in Calm   1.0 mph 58% 0.00 in BKN
11:50 81.1 °F 64.4 °F 30.12 in Calm   1.0 mph 57% 0.00 in BKN
11:55 81.3 °F 63.1 °F 30.12 in Calm   1.0 mph 54% 0.00 in BKN
12:00 81.6 °F 62.8 °F 30.12 in Calm   1.0 mph 53% 0.00 in BKN
12:05 81.8 °F 64.1 °F 30.12 in Calm   2.0 mph 55% 0.00 in BKN
12:10 81.8 °F 65.1 °F 30.12 in Calm   1.0 mph 57% 0.00 in BKN
12:15 82.3 °F 64.0 °F 30.12 in Calm   1.0 mph 54% 0.00 in BKN
12:20 82.4 °F 65.7 °F 30.12 in Calm   1.0 mph 57% 0.00 in BKN
12:25 82.7 °F 64.9 °F 30.12 in Calm   1.0 mph 55% 0.00 in BKN
12:30 82.9 °F 62.4 °F 30.12 in Calm   1.0 mph 50% 0.00 in BKN
12:35 83.0 °F 63.6 °F 30.12 in Calm     52% 0.00 in BKN
12:40 83.0 °F 64.1 °F 30.12 in Calm   1.0 mph 53% 0.00 in BKN
12:45 82.8 °F 62.8 °F 30.12 in Calm   1.0 mph 51% 0.00 in BKN
12:50 83.0 °F 62.4 °F 30.12 in Calm     50% 0.00 in BKN
12:55 83.2 °F 62.6 °F 30.11 in Calm   1.0 mph 50% 0.00 in BKN
13:00 83.5 °F 64.5 °F 30.11 in Calm   1.0 mph 53% 0.00 in BKN
13:05 84.2 °F 63.5 °F 30.11 in Calm   1.0 mph 50% 0.00 in BKN
13:15 85.3 °F 64.6 °F 30.11 in Calm   1.0 mph 50% 0.00 in BKN
13:20 86.0 °F 62.8 °F 30.11 in Calm   1.0 mph 46% 0.00 in BKN
13:25 86.5 °F 65.1 °F 30.11 in Calm   1.0 mph 49% 0.00 in BKN
13:30 86.0 °F 61.5 °F 30.11 in Calm   1.0 mph 44% 0.00 in BKN
13:35 85.9 °F 63.4 °F 30.11 in Calm     47% 0.00 in BKN
13:40 86.2 °F 63.0 °F 30.11 in Calm   1.0 mph 46% 0.00 in BKN
13:45 85.7 °F 62.5 °F 30.10 in Calm   2.0 mph 46% 0.00 in BKN
13:50 85.3 °F 64.0 °F 30.10 in Calm     49% 0.00 in BKN
13:55 85.3 °F 62.8 °F 30.10 in Calm     47% 0.00 in BKN
14:00 85.5 °F 63.0 °F 30.10 in Calm     47% 0.00 in BKN
14:05 85.6 °F 61.2 °F 30.10 in Calm     44% 0.00 in BKN
14:10 85.8 °F 59.4 °F 30.10 in Calm     41% 0.00 in BKN
14:15 85.7 °F 55.7 °F 30.09 in Calm     36% 0.00 in BKN
14:20 85.7 °F 55.6 °F 30.10 in Calm     36% 0.00 in BKN
14:25 85.5 °F 53.1 °F 30.09 in Calm     33% 0.00 in BKN
14:30 85.2 °F 57.4 °F 30.09 in Calm     39% 0.00 in BKN
14:40 84.5 °F 58.2 °F 30.08 in Calm     41% 0.00 in BKN
14:45 84.5 °F 59.5 °F 30.09 in Calm     43% 0.00 in BKN
14:50 84.4 °F 63.1 °F 30.09 in Calm     49% 0.00 in BKN
14:55 84.3 °F 61.9 °F 30.08 in Calm     47% 0.00 in BKN
15:00 84.3 °F 63.6 °F 30.09 in Calm   1.0 mph 50% 0.00 in BKN
15:10 84.1 °F 64.6 °F 30.09 in Calm     52% 0.00 in BKN
15:15 83.9 °F 65.0 °F 30.09 in Calm     53% 0.00 in BKN
15:20 83.7 °F 64.7 °F 30.09 in Calm     53% 0.00 in -RA
15:25 83.4 °F 65.5 °F 30.08 in Calm     55% 0.00 in -RA
15:30 83.4 °F 65.5 °F 30.09 in Calm     55% 0.00 in -RA
15:40 83.2 °F 62.6 °F 30.08 in Calm     50% 0.00 in -RA
15:45 83.0 °F 63.0 °F 30.08 in Calm     51% 0.00 in -RA
15:50 82.9 °F 62.9 °F 30.08 in Calm     51% 0.00 in -RA
15:55 82.8 °F 63.4 °F 30.08 in Calm     52% 0.00 in -RA
16:00 82.9 °F 65.1 °F 30.08 in Calm     55% 0.00 in -RA
16:05 83.0 °F 65.2 °F 30.08 in Calm     55% 0.00 in -RA
16:15 82.7 °F 62.7 °F 30.08 in Calm     51% 0.00 in -RA
16:20 82.8 °F 63.3 °F 30.08 in Calm     52% 0.00 in BKN
16:25 82.7 °F 61.6 °F 30.08 in Calm     49% 0.00 in BKN
16:30 82.8 °F 64.5 °F 30.07 in Calm     54% 0.00 in BKN
16:35 82.9 °F 64.5 °F 30.07 in Calm     54% 0.00 in BKN
16:40 83.0 °F 63.5 °F 30.07 in Calm     52% 0.00 in BKN
16:45 83.2 °F 64.8 °F 30.07 in Calm     54% 0.00 in BKN
16:50 83.2 °F 63.2 °F 30.07 in Calm     51% 0.00 in BKN
16:55 83.0 °F 64.6 °F 30.07 in Calm     54% 0.00 in BKN
17:00 82.9 °F 64.0 °F 30.07 in Calm     53% 0.00 in BKN
17:10 82.8 °F 65.5 °F 30.07 in Calm     56% 0.00 in BKN
17:15 82.9 °F 64.5 °F 30.06 in Calm     54% 0.00 in BKN
17:20 83.1 °F 65.3 °F 30.06 in Calm     55% 0.00 in BKN
17:25 83.3 °F 65.4 °F 30.06 in Calm     55% 0.00 in BKN
17:30 83.1 °F 66.8 °F 30.07 in Calm     58% 0.00 in BKN
17:35 82.8 °F 68.4 °F 30.07 in Calm   1.0 mph 62% 0.00 in BKN
17:40 82.5 °F 68.2 °F 30.06 in Calm   1.0 mph 62% 0.00 in BKN
17:45 82.1 °F 68.2 °F 30.06 in Calm   2.0 mph 63% 0.00 in BKN
17:50 81.7 °F 68.3 °F 30.06 in Calm   1.0 mph 64% 0.00 in BKN
17:55 81.3 °F 68.0 °F 30.07 in Calm     64% 0.00 in BKN
18:00 80.9 °F 67.1 °F 30.06 in Calm   1.0 mph 63% 0.00 in BKN
18:05 80.6 °F 66.8 °F 30.07 in Calm   1.0 mph 63% 0.00 in BKN
18:10 80.2 °F 66.5 °F 30.07 in Calm   1.0 mph 63% 0.00 in BKN
18:15 79.7 °F 66.5 °F 30.07 in Calm   1.0 mph 64% 0.00 in BKN
18:20 79.4 °F 66.2 °F 30.07 in Calm     64% 0.00 in OVC
18:25 79.2 °F 66.4 °F 30.06 in Calm     65% 0.00 in OVC
18:30 79.0 °F 66.2 °F 30.06 in Calm   1.0 mph 65% 0.00 in OVC
18:35 78.9 °F 67.0 °F 30.06 in Calm     67% 0.00 in OVC
18:40 79.0 °F 66.2 °F 30.06 in Calm     65% 0.00 in OVC
18:45 79.0 °F 66.2 °F 30.06 in Calm     65% 0.00 in OVC
18:50 79.0 °F 64.9 °F 30.06 in Calm     62% 0.00 in OVC
18:55 78.8 °F 65.6 °F 30.06 in Calm     64% 0.00 in OVC
19:00 78.6 °F 65.8 °F 30.06 in Calm     65% 0.00 in OVC
19:05 78.5 °F 65.3 °F 30.06 in Calm     64% 0.00 in OVC
19:10 78.4 °F 65.7 °F 30.06 in Calm     65% 0.00 in OVC
19:15 78.4 °F 66.5 °F 30.06 in Calm     67% 0.00 in OVC
19:20 78.3 °F 66.9 °F 30.06 in Calm     68% 0.00 in BKN
19:25 78.2 °F 66.3 °F 30.06 in Calm     67% 0.00 in BKN
19:30 78.1 °F 66.2 °F 30.06 in Calm     67% 0.00 in BKN
19:35 78.0 °F 66.2 °F 30.06 in Calm     67% 0.00 in BKN
19:40 77.9 °F 66.1 °F 30.06 in Calm     67% 0.00 in BKN
19:45 77.8 °F 66.8 °F 30.06 in Calm     69% 0.00 in BKN
19:50 77.8 °F 66.8 °F 30.07 in Calm     69% 0.00 in BKN
19:55 77.7 °F 67.2 °F 30.07 in Calm     70% 0.00 in BKN
20:00 77.8 °F 67.6 °F 30.07 in Calm     71% 0.00 in BKN
20:05 77.9 °F 68.1 °F 30.07 in Calm     72% 0.00 in BKN
20:10 77.9 °F 68.5 °F 30.06 in Calm     73% 0.00 in BKN
20:15 77.9 °F 68.5 °F 30.07 in Calm     73% 0.00 in BKN
20:20 77.9 °F 68.5 °F 30.07 in Calm     73% 0.00 in BKN
20:25 77.8 °F 68.4 °F 30.07 in Calm     73% 0.00 in BKN
20:30 77.7 °F 68.4 °F 30.07 in Calm     73% 0.00 in BKN
20:35 77.6 °F 68.7 °F 30.07 in Calm     74% 0.00 in BKN
20:40 77.4 °F 68.5 °F 30.07 in Calm     74% 0.00 in BKN
20:45 77.3 °F 68.8 °F 30.07 in Calm     75% 0.00 in BKN
20:50 77.1 °F 69.0 °F 30.08 in Calm   1.0 mph 76% 0.00 in BKN
20:55 77.1 °F 68.9 °F 30.08 in Calm     76% 0.00 in BKN
21:00 77.0 °F 69.2 °F 30.08 in Calm     77% 0.00 in BKN
21:05 77.0 °F 69.2 °F 30.08 in Calm     77% 0.00 in BKN
21:10 76.9 °F 69.5 °F 30.08 in Calm   1.0 mph 78% 0.00 in BKN
21:15 76.7 °F 69.3 °F 30.08 in Calm     78% 0.00 in BKN
21:20 76.5 °F 68.7 °F 30.08 in Calm     77% 0.00 in OVC
21:25 76.3 °F 68.1 °F 30.09 in Calm     76% 0.00 in OVC
21:30 76.0 °F 66.7 °F 30.09 in Calm     73% 0.00 in OVC
21:40 75.7 °F 66.8 °F 30.09 in Calm     74% 0.00 in OVC
21:45 75.5 °F 66.6 °F 30.09 in Calm   1.0 mph 74% 0.00 in OVC
21:50 75.3 °F 67.2 °F 30.09 in Calm   1.0 mph 76% 0.00 in OVC
22:00 75.1 °F 67.4 °F 30.09 in Calm     77% 0.00 in OVC
22:05 75.0 °F 67.7 °F 30.09 in Calm     78% 0.00 in OVC
22:10 74.8 °F 67.9 °F 30.09 in Calm   1.0 mph 79% 0.00 in OVC
22:20 74.5 °F 67.9 °F 30.09 in Calm   1.0 mph 80% 0.00 in BKN
22:25 74.2 °F 67.7 °F 30.09 in Calm   1.0 mph 80% 0.00 in BKN
22:30 74.0 °F 67.8 °F 30.09 in Calm   1.0 mph 81% 0.00 in BKN
22:40 73.6 °F 67.8 °F 30.09 in Calm     82% 0.00 in BKN
22:45 73.5 °F 67.7 °F 30.09 in Calm     82% 0.00 in BKN
22:50 73.3 °F 67.9 °F 30.09 in Calm     83% 0.00 in BKN
22:55 73.2 °F 67.7 °F 30.09 in Calm     83% 0.00 in BKN
23:00 73.1 °F 67.6 °F 30.09 in Calm     83% 0.00 in BKN
23:05 72.9 °F 67.1 °F 30.09 in Calm   1.0 mph 82% 0.00 in BKN
23:10 72.8 °F 67.0 °F 30.09 in Calm     82% 0.00 in BKN
23:20 72.6 °F 66.8 °F 30.09 in Calm     82% 0.00 in BKN
23:25 72.5 °F 66.7 °F 30.08 in Calm     82% 0.00 in BKN
23:30 72.3 °F 66.5 °F 30.08 in Calm     82% 0.00 in BKN
23:35 72.2 °F 66.4 °F 30.09 in Calm   1.0 mph 82% 0.00 in BKN
23:40 72.1 °F 66.3 °F 30.09 in Calm   1.0 mph 82% 0.00 in BKN
23:45 72.0 °F 66.2 °F 30.09 in Calm     82% 0.00 in BKN
23:50 71.9 °F 66.5 °F 30.09 in Calm     83% 0.00 in BKN
23:55 71.8 °F 66.4 °F 30.09 in Calm     83% 0.00 in BKN
Piedmont Bend
Compliments of Weather Underground - 4 mb